SCP
0 0 0 0 0 0 0 0 0 0 0 0 0 0 0 0 0 -0 0 0 0 0 0 0 0 0 0 0 0 0 0 0 0 0 0 0 0 0 0 0 0 0 0 0 0
0 0 0 0 0 0 0 0 0 0 0 0 0 0 0 0 -0 -0 0 0 0 0 0 0 0 0 0 0 0 0 0 0 0 0 0 0 0 0 0 0 0 0 0 0 0
0 0 0 0 0 0 0 0 0 0 0 0 0 0 0 0 -0 -0 -0 0 0 0 0 0 0 0 0 0 0 0 0 0 0 0 0 0 0 0 0 0 0 0 0 0 0
0 0 0 0 0 0 0 0 0 0 0 0 0 0 0 0 0 0 0 0 0 0 0 0 0 0 0 0 0 0 0 0 0 0 0 0 0 0 0 0 0 0 0 0 0
0 0 0 0 0 0 0 0 0 0 0 0 0 0 0 0 0 0 0 0 0 0 0 0 0 0 0 0 0 0 0 0 0 0 0 0 0 0 0 0 0 0 0 0 0
0 0 0 0 0 0 0 0 0 0 0 0 0 0 0 0 0 0 0 0 0 0 0 0 0 0 0 0 0 0 0 0 0 0 0 0 0 0 -0 0 0 0 0 0 0
0 0 0 0 0 0 0 0 0 0 0 0 0 0 0 0 0 0 0 0 0 0 0 0 0 0 0 0 0 0 0 0 0 0 0 0 0 0 0 0 0 0 0 0 0
0 0 0 0 0 0 0 0 0 0 0 0 0 0 0 0 0 0 0 0 0 0 0 0 0 0 0 0 0 0 0 0 0 0 0 0 0 -0 0 0 0 0 0 0 0
0 0 0 0 0 0 0 0 0 0 0 0 0 0 0 0 0 0 0 0 0 0 0 0 0 0 0 0 0 0 0 0 0 0 0 0 0 -0 0 0 0 0 0 0 0
0 0 0 0 0 0 0 0 0 -0 -0 -0 0 0 0 0 0 0 0 0 0 0 0 0 0 0 0 0 0 0 0 0 0 0 0 0 0 -0 0 0 0 0 0 0 0
0 0 0 0 0 0 0 0 0 0 0 0 0 0 0 0 0 0 0 0 0 0 0 0 0 0 0 0 0 0 0 0 0 0 0 0 -0 -0 -0 0 0 0 0 0 0
0 0 0 0 0 0 0 0 0 0 0 0 0 0 0 0 0 0 0 0 0 0 0 0 0 0 0 0 0 0 0 0 0 0 0 -0 -0 -0 0 0 0 0 0 0 0
0 0 0 0 0 0 0 0 0 0 -0 -0 0 0 0 0 0 0 0 0 0 0 0 0 0 0 0 0 0 0 0 0 0 0 0 -0 -0 -0 0 0 0 0 0 0 0
0 0 0 0 0 0 0 0 0 0 -0 -0 0 0 0 0 0 0 0 0 0 0 0 0 0 0 0 0 0 0 0 0 0 0 0 -0 -0 -0 -0 0 0 0 0 -0 0
0 0 0 0 0 0 0 0 0 0 0 -0 0 -0 0 0 0 0 0 0 0 0 0 0 0 0 0 0 0 0 0 0 0 -0 -0 -0 -0 -0 -0 0 0 0 0 -0 0
0 0 0 0 0 0 0 0 0 0 0 0 0 0 0 0 0 0 0 0 0 0 0 0 0 0 0 0 0 0 0 0 0 -0 -0 -0 -0 -0 0 0 0 0 0 -0 0
0 0 0 0 0 0 0 0 0 0 0 0 0 -0 0 0 0 0 0 0 0 0 0 0 0 0 0 0 0 0 0 0 0 0 -0 -0 0 -0 -0 -0 0 0 0 0 0
0 0 0 0 0 0 0 0 0 0 0 0 -0 0 0 -0 0 0 0 0 0 0 0 0 0 0 0 0 0 0 0 0 -0 -0 -0 0 -0 -0 -0 0 0 0 0 0 0
0 0 0 0 0 0 0 0 0 0 0 0 -0 -0 -0 -0 -0 0 0 0 0 0 0 0 0 0 0 0 0 0 0 0 0 0 -0 0 0 0 -0 0 0 0 0 0 -0
0 0 0 0 0 0 0 0 0 0 0 0 -0 0 -0 -0 -0 0 0 0 0 0 0 0 0 0 0 0 0 0 0 0 0 0 0 0 0 0 0 0 0 0 0 -0 -0
0 0 0 0 0 0 0 -0 0 0 0 0 0 0 0 -0 -0 0 0 0 0 0 0 0 0 0 0 0 0 0 0 0 0 0 0 0 0 0 0 0 0 0 0 -0 -0
0 0 0 -0 0 -0 -0 -0 0 0 0 -0 -0 0 0 0 -0 -0 0 0 0 0 0 0 0 0 0 0 0 0 0 0 0 0 0 0 0 0 0 0 0 0 0 -0 0
0 0 0 0 0 -0 -0 -0 -0 -0 0 0 -0 -0 -0 0 -0 -0 -0 -0 0 0 0 0 0 0 0 0 0 0 0 0 0 0 0 0 0 0 0 0 0 -0 0 -0 0
0 0 0 0 0 0 -0 -0 -0 -0 -0 -0 -0 0 0 -0 -0 -0 -0 -0 -0 0 0 0 0 0 0 0 0 0 0 0 0 0 0 0 0 0 0 0 0 0 0 -0 -0
0 0 0 0 0 0 0 0 -0 -0 -0 -0 -0 0 -0 -0 0 -0 -0 -0 -0 0 0 0 0 0 -0 0 0 0 0 0 0 -0 0 -0 0 -0 0 0 -0 0 0 -0 -0
0 0 0 0 0 0 0 0 0 -0 -0 -0 -0 0 0 -0 -0 0 -0 -0 -0 -0 0 0 0 0 -0 -0 -0 0 0 0 0 0 -0 -0 -0 -0 0 0 0 0 -0 -0 -0
0 0 0 0 0 0 0 0 0 0 -0 0 -0 -0 -0 0 -0 -0 -0 -0 -0 -0 0 0 0 0 0 0 -0 -0 0 0 0 0 0 0 -0 -0 -0 0 0 0 -0 -0 -0
Wind_Speed_500mb
39 45 49 53 59 62 61 60 56 52 51 51 51 51 51 55 55 51 61 48 35 24 35 29 22 39 32 27 24 18 4 13 15 14 17 8 6 8 3 18 15 31 50 52 63
39 40 42 47 49 55 59 61 61 60 58 55 54 54 53 56 61 72 67 56 40 44 50 44 44 42 29 28 22 17 13 23 24 19 13 13 4 33 14 36 30 48 59 58 59
35 35 34 35 40 46 51 56 58 59 60 60 56 56 53 48 56 69 61 44 46 52 53 46 28 47 30 22 33 17 29 39 40 53 20 18 31 27 23 30 52 44 76 79 68
38 39 39 39 39 39 41 46 50 54 57 57 59 58 56 35 17 3 26 22 33 47 52 51 40 33 16 22 38 8 37 59 58 53 36 17 32 44 50 58 75 76 84 85 69
40 40 41 42 42 42 41 40 40 44 49 52 48 47 50 31 49 9 30 12 9 11 41 61 59 44 18 18 35 19 26 42 50 53 60 48 36 43 59 90 81 76 81 81 72
40 42 43 44 45 45 43 44 43 43 44 43 39 31 36 35 61 59 73 58 47 40 24 50 38 55 23 20 17 17 47 52 42 64 68 44 37 45 77 75 71 71 78 83 79
45 46 46 48 48 50 49 47 45 45 45 42 35 33 51 84 49 37 41 74 69 57 48 40 42 40 21 6 27 24 14 17 31 44 20 43 25 43 92 65 63 72 80 83 81
43 44 47 49 50 51 51 52 52 51 51 44 30 24 39 44 56 61 66 41 49 55 48 45 33 49 11 8 3 6 5 6 12 8 15 24 23 44 66 56 69 69 65 71 76
47 50 50 49 49 51 53 55 53 54 47 39 24 19 36 29 51 59 69 80 60 43 33 24 46 34 10 17 15 6 22 21 16 16 9 15 26 32 42 26 46 63 70 67 71
43 47 50 52 55 52 52 53 46 29 21 3 11 15 34 24 31 35 28 56 60 46 45 29 24 11 10 15 34 12 9 13 19 3 8 18 30 37 75 34 47 52 68 77 81
44 46 46 46 50 53 50 48 16 7 14 14 16 41 53 32 30 17 22 27 49 29 21 25 15 42 46 30 14 13 28 28 4 7 12 19 19 29 47 25 35 57 68 82 85
48 49 48 47 47 49 40 9 11 17 24 50 64 71 78 81 39 45 20 26 27 37 26 12 56 41 22 28 26 17 24 33 21 7 13 20 25 31 32 34 40 55 74 72 62
49 47 46 48 48 35 21 13 12 37 12 36 56 35 52 55 50 84 30 26 13 26 49 54 45 25 31 19 27 27 35 34 22 14 12 15 24 23 26 27 34 49 44 46 50
47 45 46 49 29 28 23 1 20 25 8 16 7 15 14 20 21 76 53 27 16 37 35 34 43 42 25 37 31 37 32 30 24 9 17 10 12 20 19 33 18 43 47 50 41
43 45 45 39 44 29 20 17 15 3 10 6 5 4 39 18 28 28 86 46 20 19 20 26 35 46 46 49 41 27 15 14 13 14 3 9 11 13 9 19 28 23 53 54 41
47 49 45 38 34 16 13 15 4 4 15 10 12 23 27 22 35 24 25 59 24 12 18 28 20 38 32 17 26 9 6 8 8 2 18 28 14 10 12 22 13 12 22 28 22
53 48 40 36 32 27 20 5 4 8 12 4 15 27 42 26 14 6 16 33 22 23 23 10 18 6 15 30 9 14 15 3 7 1 11 12 13 29 20 18 18 24 36 17 22
54 47 31 16 17 12 3 5 10 8 12 24 27 29 20 28 17 40 12 26 39 2 18 15 11 29 14 20 26 30 20 12 12 7 9 12 15 17 26 31 45 48 36 21 35
59 41 14 24 11 11 5 3 7 6 8 20 24 16 12 24 9 24 13 15 8 39 10 17 14 6 27 15 35 23 20 24 3 3 2 8 15 16 12 18 11 2 14 32 40
59 24 27 16 3 12 3 7 7 10 17 13 9 9 14 22 15 24 12 23 22 19 26 5 5 14 27 16 38 18 22 13 14 12 7 10 10 11 4 11 8 11 19 37 42
27 10 21 18 7 8 1 7 9 21 18 6 5 7 16 24 12 6 14 15 44 48 19 5 5 7 19 27 34 11 13 6 16 9 10 2 12 15 17 17 18 18 35 49 53
25 6 13 14 7 4 5 6 16 16 20 11 9 18 16 19 10 3 10 16 56 38 22 6 4 8 20 15 41 44 31 16 14 9 8 7 12 7 18 13 14 16 32 38 47
22 11 10 11 4 4 9 9 9 10 11 7 9 7 12 14 12 10 7 5 21 32 31 16 7 3 10 6 4 44 37 31 11 7 29 16 12 6 10 13 13 22 38 39 47
14 9 8 7 5 5 12 13 7 18 17 10 9 13 9 12 16 9 15 4 13 28 34 20 6 10 20 11 10 9 31 39 23 10 6 22 2 9 7 13 11 24 38 45 49
15 5 6 8 7 16 11 7 10 9 10 19 6 4 7 7 13 3 13 10 9 16 21 5 7 9 21 26 14 11 25 38 35 43 26 10 16 13 16 18 14 36 42 48 51
14 9 10 17 21 16 8 6 7 9 7 10 6 21 12 8 10 16 17 9 1 2 10 5 7 12 8 15 32 26 21 31 46 41 36 7 21 18 7 13 18 45 51 53 58
17 19 13 13 8 5 4 8 17 25 22 22 19 25 20 24 10 31 32 25 12 5 5 6 8 13 9 15 8 18 37 21 17 25 36 25 48 9 9 16 24 48 58 62 65
Wind_Direction_500mb
306 301 298 295 296 298 296 295 291 288 285 282 279 278 280 280 273 269 261 262 266 264 251 221 203 216 212 209 190 184 149 240 237 184 243 147 318 287 314 281 294 289 290 294 297
322 313 306 301 296 292 294 295 294 292 289 285 282 279 278 279 281 273 263 265 258 257 251 231 220 202 198 210 199 181 196 227 221 214 246 288 287 304 319 304 292 294 298 299 302
344 342 336 321 307 301 297 296 294 292 290 287 283 282 279 282 292 280 278 260 240 245 236 236 221 202 195 200 200 205 225 229 260 247 263 285 299 307 282 286 288 289 301 304 306
339 337 337 334 333 328 319 308 300 296 289 286 286 283 277 277 238 187 196 152 213 221 222 212 196 182 202 201 214 219 232 238 248 262 275 259 288 283 285 274 282 292 295 297 292
337 334 331 329 327 326 324 322 316 307 296 291 286 284 284 259 236 216 198 203 32 195 212 200 182 185 186 206 220 237 243 246 253 266 269 278 262 268 279 279 285 290 292 293 291
329 328 327 326 326 325 324 321 315 310 307 299 290 287 279 253 259 251 244 244 258 270 280 202 206 202 207 230 189 207 237 253 267 262 263 268 278 276 272 273 280 286 290 295 294
330 328 326 325 323 320 319 318 313 313 309 302 296 280 266 251 250 257 252 248 246 252 253 253 208 198 219 310 254 246 239 260 251 256 256 268 270 257 266 279 280 283 287 288 289
327 324 323 323 322 320 318 312 310 314 304 290 287 281 259 270 270 254 243 243 233 239 236 245 235 229 213 225 314 194 207 242 255 205 255 181 260 271 272 271 273 277 285 289 287
325 326 325 323 321 319 317 311 314 310 303 288 263 250 271 269 262 272 249 237 236 237 228 215 223 221 194 224 279 243 251 256 287 227 231 178 275 270 279 281 277 281 287 286 289
330 328 326 325 325 325 323 318 318 315 322 30 232 281 260 250 303 291 278 239 227 235 221 220 213 187 182 176 216 205 247 239 236 276 209 260 258 274 279 267 267 281 285 289 294
335 330 326 323 324 327 330 338 358 333 335 268 238 246 281 284 329 243 271 222 207 207 178 181 198 215 207 207 206 205 230 244 251 199 240 242 265 268 280 271 272 280 283 292 293
335 332 328 326 325 323 324 357 56 328 300 293 279 258 270 278 286 272 238 164 184 200 164 174 227 218 191 203 211 212 239 254 268 221 237 272 272 273 277 274 266 272 278 281 286
334 333 330 325 326 323 347 358 315 337 268 287 261 247 248 248 231 259 237 198 179 188 190 202 222 197 195 192 203 215 224 242 249 315 254 309 290 270 280 277 277 282 283 295 276
331 331 331 324 325 326 328 345 321 323 306 273 227 256 246 237 248 239 228 210 195 197 197 232 222 193 194 208 189 221 219 242 264 278 268 142 280 301 301 299 288 285 296 293 284
335 329 323 319 308 315 309 304 294 144 318 243 192 78 335 188 307 240 226 231 202 167 165 211 181 209 206 209 200 233 204 222 233 229 239 256 277 269 273 282 282 276 287 281 272
333 330 323 316 294 312 314 319 286 89 248 302 26 346 336 268 258 275 167 210 222 184 238 218 206 199 203 181 205 137 202 40 36 65 257 261 206 221 228 237 261 266 277 297 253
333 330 322 304 291 301 312 298 109 202 334 355 351 335 323 344 324 184 222 197 187 188 204 165 224 169 153 212 158 138 100 276 333 270 230 192 183 249 255 231 226 257 277 288 199
335 333 331 333 286 264 125 73 219 257 255 351 342 322 328 18 335 338 223 224 236 95 171 171 206 196 173 183 192 196 167 154 203 222 255 161 205 248 225 233 246 258 260 206 188
340 344 21 3 331 138 147 162 227 289 21 338 339 326 338 356 344 349 320 14 240 237 218 181 237 190 189 158 177 198 190 179 14 188 313 224 279 308 226 255 264 202 198 186 180
339 349 7 1 91 152 93 245 271 337 328 324 304 315 330 332 343 350 312 13 350 335 224 225 167 195 210 183 188 158 142 178 204 199 220 271 268 232 229 241 291 230 200 181 174
352 11 16 12 192 95 231 270 296 293 319 304 294 291 299 307 316 15 291 7 8 347 335 6 154 283 142 195 185 166 172 159 170 162 168 276 262 215 230 228 234 222 186 185 172
359 16 353 323 27 12 299 290 310 293 306 266 263 252 255 313 310 245 246 317 344 343 342 312 313 234 214 166 195 200 193 159 190 195 208 163 267 213 230 256 234 226 176 183 177
343 301 356 19 42 330 294 285 264 292 279 312 301 290 309 294 304 226 265 15 332 326 345 342 295 193 6 304 174 202 207 209 115 109 206 209 253 307 328 303 252 195 168 172 171
355 342 344 39 49 294 324 298 293 289 284 271 259 281 316 310 313 291 267 250 351 327 330 354 278 270 217 208 142 150 203 209 200 204 204 222 270 277 280 259 241 163 170 168 174
5 318 331 314 317 312 303 293 291 316 315 305 297 6 332 311 313 359 3 318 28 359 336 7 277 311 300 288 282 171 181 200 204 214 213 223 241 250 249 239 235 170 165 168 176
0 335 312 285 291 319 324 271 320 333 294 304 277 310 310 284 272 285 326 7 161 76 318 297 284 342 285 261 274 266 255 214 200 208 229 243 252 228 264 157 180 165 172 178 185
337 322 280 276 295 289 261 301 305 310 282 241 304 313 305 286 308 294 274 255 225 282 340 287 339 352 303 339 241 258 237 229 209 226 207 197 236 148 202 215 192 174 188 190 193
Wind_Speed_850mb
39 45 49 53 59 62 61 60 56 52 51 51 51 51 51 55 55 51 61 48 35 24 35 29 22 39 32 27 24 18 4 13 15 14 17 8 6 8 3 18 15 31 50 52 63
39 40 42 47 49 55 59 61 61 60 58 55 54 54 53 56 61 72 67 56 40 44 50 44 44 42 29 28 22 17 13 23 24 19 13 13 4 33 14 36 30 48 59 58 59
35 35 34 35 40 46 51 56 58 59 60 60 56 56 53 48 56 69 61 44 46 52 53 46 28 47 30 22 33 17 29 39 40 53 20 18 31 27 23 30 52 44 76 79 68
38 39 39 39 39 39 41 46 50 54 57 57 59 58 56 35 17 3 26 22 33 47 52 51 40 33 16 22 38 8 37 59 58 53 36 17 32 44 50 58 75 76 84 85 69
40 40 41 42 42 42 41 40 40 44 49 52 48 47 50 31 49 9 30 12 9 11 41 61 59 44 18 18 35 19 26 42 50 53 60 48 36 43 59 90 81 76 81 81 72
40 42 43 44 45 45 43 44 43 43 44 43 39 31 36 35 61 59 73 58 47 40 24 50 38 55 23 20 17 17 47 52 42 64 68 44 37 45 77 75 71 71 78 83 79
45 46 46 48 48 50 49 47 45 45 45 42 35 33 51 84 49 37 41 74 69 57 48 40 42 40 21 6 27 24 14 17 31 44 20 43 25 43 92 65 63 72 80 83 81
43 44 47 49 50 51 51 52 52 51 51 44 30 24 39 44 56 61 66 41 49 55 48 45 33 49 11 8 3 6 5 6 12 8 15 24 23 44 66 56 69 69 65 71 76
47 50 50 49 49 51 53 55 53 54 47 39 24 19 36 29 51 59 69 80 60 43 33 24 46 34 10 17 15 6 22 21 16 16 9 15 26 32 42 26 46 63 70 67 71
43 47 50 52 55 52 52 53 46 29 21 3 11 15 34 24 31 35 28 56 60 46 45 29 24 11 10 15 34 12 9 13 19 3 8 18 30 37 75 34 47 52 68 77 81
44 46 46 46 50 53 50 48 16 7 14 14 16 41 53 32 30 17 22 27 49 29 21 25 15 42 46 30 14 13 28 28 4 7 12 19 19 29 47 25 35 57 68 82 85
48 49 48 47 47 49 40 9 11 17 24 50 64 71 78 81 39 45 20 26 27 37 26 12 56 41 22 28 26 17 24 33 21 7 13 20 25 31 32 34 40 55 74 72 62
49 47 46 48 48 35 21 13 12 37 12 36 56 35 52 55 50 84 30 26 13 26 49 54 45 25 31 19 27 27 35 34 22 14 12 15 24 23 26 27 34 49 44 46 50
47 45 46 49 29 28 23 1 20 25 8 16 7 15 14 20 21 76 53 27 16 37 35 34 43 42 25 37 31 37 32 30 24 9 17 10 12 20 19 33 18 43 47 50 41
43 45 45 39 44 29 20 17 15 3 10 6 5 4 39 18 28 28 86 46 20 19 20 26 35 46 46 49 41 27 15 14 13 14 3 9 11 13 9 19 28 23 53 54 41
47 49 45 38 34 16 13 15 4 4 15 10 12 23 27 22 35 24 25 59 24 12 18 28 20 38 32 17 26 9 6 8 8 2 18 28 14 10 12 22 13 12 22 28 22
53 48 40 36 32 27 20 5 4 8 12 4 15 27 42 26 14 6 16 33 22 23 23 10 18 6 15 30 9 14 15 3 7 1 11 12 13 29 20 18 18 24 36 17 22
54 47 31 16 17 12 3 5 10 8 12 24 27 29 20 28 17 40 12 26 39 2 18 15 11 29 14 20 26 30 20 12 12 7 9 12 15 17 26 31 45 48 36 21 35
59 41 14 24 11 11 5 3 7 6 8 20 24 16 12 24 9 24 13 15 8 39 10 17 14 6 27 15 35 23 20 24 3 3 2 8 15 16 12 18 11 2 14 32 40
59 24 27 16 3 12 3 7 7 10 17 13 9 9 14 22 15 24 12 23 22 19 26 5 5 14 27 16 38 18 22 13 14 12 7 10 10 11 4 11 8 11 19 37 42
27 10 21 18 7 8 1 7 9 21 18 6 5 7 16 24 12 6 14 15 44 48 19 5 5 7 19 27 34 11 13 6 16 9 10 2 12 15 17 17 18 18 35 49 53
25 6 13 14 7 4 5 6 16 16 20 11 9 18 16 19 10 3 10 16 56 38 22 6 4 8 20 15 41 44 31 16 14 9 8 7 12 7 18 13 14 16 32 38 47
22 11 10 11 4 4 9 9 9 10 11 7 9 7 12 14 12 10 7 5 21 32 31 16 7 3 10 6 4 44 37 31 11 7 29 16 12 6 10 13 13 22 38 39 47
14 9 8 7 5 5 12 13 7 18 17 10 9 13 9 12 16 9 15 4 13 28 34 20 6 10 20 11 10 9 31 39 23 10 6 22 2 9 7 13 11 24 38 45 49
15 5 6 8 7 16 11 7 10 9 10 19 6 4 7 7 13 3 13 10 9 16 21 5 7 9 21 26 14 11 25 38 35 43 26 10 16 13 16 18 14 36 42 48 51
14 9 10 17 21 16 8 6 7 9 7 10 6 21 12 8 10 16 17 9 1 2 10 5 7 12 8 15 32 26 21 31 46 41 36 7 21 18 7 13 18 45 51 53 58
17 19 13 13 8 5 4 8 17 25 22 22 19 25 20 24 10 31 32 25 12 5 5 6 8 13 9 15 8 18 37 21 17 25 36 25 48 9 9 16 24 48 58 62 65
Wind_Direction_850mb
306 301 298 295 296 298 296 295 291 288 285 282 279 278 280 280 273 269 261 262 266 264 251 221 203 216 212 209 190 184 149 240 237 184 243 147 318 287 314 281 294 289 290 294 297
322 313 306 301 296 292 294 295 294 292 289 285 282 279 278 279 281 273 263 265 258 257 251 231 220 202 198 210 199 181 196 227 221 214 246 288 287 304 319 304 292 294 298 299 302
344 342 336 321 307 301 297 296 294 292 290 287 283 282 279 282 292 280 278 260 240 245 236 236 221 202 195 200 200 205 225 229 260 247 263 285 299 307 282 286 288 289 301 304 306
339 337 337 334 333 328 319 308 300 296 289 286 286 283 277 277 238 187 196 152 213 221 222 212 196 182 202 201 214 219 232 238 248 262 275 259 288 283 285 274 282 292 295 297 292
337 334 331 329 327 326 324 322 316 307 296 291 286 284 284 259 236 216 198 203 32 195 212 200 182 185 186 206 220 237 243 246 253 266 269 278 262 268 279 279 285 290 292 293 291
329 328 327 326 326 325 324 321 315 310 307 299 290 287 279 253 259 251 244 244 258 270 280 202 206 202 207 230 189 207 237 253 267 262 263 268 278 276 272 273 280 286 290 295 294
330 328 326 325 323 320 319 318 313 313 309 302 296 280 266 251 250 257 252 248 246 252 253 253 208 198 219 310 254 246 239 260 251 256 256 268 270 257 266 279 280 283 287 288 289
327 324 323 323 322 320 318 312 310 314 304 290 287 281 259 270 270 254 243 243 233 239 236 245 235 229 213 225 314 194 207 242 255 205 255 181 260 271 272 271 273 277 285 289 287
325 326 325 323 321 319 317 311 314 310 303 288 263 250 271 269 262 272 249 237 236 237 228 215 223 221 194 224 279 243 251 256 287 227 231 178 275 270 279 281 277 281 287 286 289
330 328 326 325 325 325 323 318 318 315 322 30 232 281 260 250 303 291 278 239 227 235 221 220 213 187 182 176 216 205 247 239 236 276 209 260 258 274 279 267 267 281 285 289 294
335 330 326 323 324 327 330 338 358 333 335 268 238 246 281 284 329 243 271 222 207 207 178 181 198 215 207 207 206 205 230 244 251 199 240 242 265 268 280 271 272 280 283 292 293
335 332 328 326 325 323 324 357 56 328 300 293 279 258 270 278 286 272 238 164 184 200 164 174 227 218 191 203 211 212 239 254 268 221 237 272 272 273 277 274 266 272 278 281 286
334 333 330 325 326 323 347 358 315 337 268 287 261 247 248 248 231 259 237 198 179 188 190 202 222 197 195 192 203 215 224 242 249 315 254 309 290 270 280 277 277 282 283 295 276
331 331 331 324 325 326 328 345 321 323 306 273 227 256 246 237 248 239 228 210 195 197 197 232 222 193 194 208 189 221 219 242 264 278 268 142 280 301 301 299 288 285 296 293 284
335 329 323 319 308 315 309 304 294 144 318 243 192 78 335 188 307 240 226 231 202 167 165 211 181 209 206 209 200 233 204 222 233 229 239 256 277 269 273 282 282 276 287 281 272
333 330 323 316 294 312 314 319 286 89 248 302 26 346 336 268 258 275 167 210 222 184 238 218 206 199 203 181 205 137 202 40 36 65 257 261 206 221 228 237 261 266 277 297 253
333 330 322 304 291 301 312 298 109 202 334 355 351 335 323 344 324 184 222 197 187 188 204 165 224 169 153 212 158 138 100 276 333 270 230 192 183 249 255 231 226 257 277 288 199
335 333 331 333 286 264 125 73 219 257 255 351 342 322 328 18 335 338 223 224 236 95 171 171 206 196 173 183 192 196 167 154 203 222 255 161 205 248 225 233 246 258 260 206 188
340 344 21 3 331 138 147 162 227 289 21 338 339 326 338 356 344 349 320 14 240 237 218 181 237 190 189 158 177 198 190 179 14 188 313 224 279 308 226 255 264 202 198 186 180
339 349 7 1 91 152 93 245 271 337 328 324 304 315 330 332 343 350 312 13 350 335 224 225 167 195 210 183 188 158 142 178 204 199 220 271 268 232 229 241 291 230 200 181 174
352 11 16 12 192 95 231 270 296 293 319 304 294 291 299 307 316 15 291 7 8 347 335 6 154 283 142 195 185 166 172 159 170 162 168 276 262 215 230 228 234 222 186 185 172
359 16 353 323 27 12 299 290 310 293 306 266 263 252 255 313 310 245 246 317 344 343 342 312 313 234 214 166 195 200 193 159 190 195 208 163 267 213 230 256 234 226 176 183 177
343 301 356 19 42 330 294 285 264 292 279 312 301 290 309 294 304 226 265 15 332 326 345 342 295 193 6 304 174 202 207 209 115 109 206 209 253 307 328 303 252 195 168 172 171
355 342 344 39 49 294 324 298 293 289 284 271 259 281 316 310 313 291 267 250 351 327 330 354 278 270 217 208 142 150 203 209 200 204 204 222 270 277 280 259 241 163 170 168 174
5 318 331 314 317 312 303 293 291 316 315 305 297 6 332 311 313 359 3 318 28 359 336 7 277 311 300 288 282 171 181 200 204 214 213 223 241 250 249 239 235 170 165 168 176
0 335 312 285 291 319 324 271 320 333 294 304 277 310 310 284 272 285 326 7 161 76 318 297 284 342 285 261 274 266 255 214 200 208 229 243 252 228 264 157 180 165 172 178 185
337 322 280 276 295 289 261 301 305 310 282 241 304 313 305 286 308 294 274 255 225 282 340 287 339 352 303 339 241 258 237 229 209 226 207 197 236 148 202 215 192 174 188 190 193